TimeCST,TemperatureF,Dew PointF,Humidity,Sea Level PressureIn,VisibilityMPH,Wind Direction,Wind SpeedMPH,Gust SpeedMPH,PrecipitationIn,Events,Conditions,WindDirDegrees,DateUTC
6:00 AM,70,69,94,29.92,12,Calm,Calm,,,,Scattered Clouds,,2013-10-17 12:00:00
6:00 AM,69.8,68.0,94,29.91,6.2,Calm,Calm,-,N/A,,Mostly Cloudy,0,2013-10-17 12:00:00
7:00 AM,73.4,71.6,94,29.91,6.2,SE,3.5,-,N/A,,Mostly Cloudy,140,2013-10-17 13:00:00
8:00 AM,75.2,71.6,89,29.94,6.2,South,4.6,-,N/A,,Mostly Cloudy,180,2013-10-17 14:00:00
9:00 AM,77,74,88,29.98,12,East,4.6,,,,Overcast,100,2013-10-17 15:00:00
9:00 AM,77.0,73.4,89,29.96,6.2,East,4.6,-,N/A,,Mostly Cloudy,100,2013-10-17 15:00:00
10:00 AM,78.8,73.4,83,29.94,6.2,SE,3.5,-,N/A,,Mostly Cloudy,130,2013-10-17 16:00:00
11:00 AM,80.6,71.6,74,29.91,6.2,South,3.5,-,N/A,,Mostly Cloudy,180,2013-10-17 17:00:00
12:00 PM,81,73,72,29.89,12,SSE,3.5,,,,Partly Cloudy,150,2013-10-17 18:00:00
12:00 PM,80.6,73.4,79,29.88,6.2,SSE,3.5,-,N/A,,Mostly Cloudy,150,2013-10-17 18:00:00
1:00 PM,84.2,73.4,70,29.85,6.2,SE,3.5,-,N/A,,Mostly Cloudy,140,2013-10-17 19:00:00
2:00 PM,84.2,73.4,70,29.80,6.2,SE,3.5,-,N/A,,Mostly Cloudy,140,2013-10-17 20:00:00
3:00 PM,84,74,66,29.86,12,West,2.3,,,,Overcast,270,2013-10-17 21:00:00
3:00 PM,84.2,75.2,74,29.78,6.2,West,2.3,-,N/A,,Mostly Cloudy,270,2013-10-17 21:00:00
4:00 PM,80.6,75.2,84,29.79,6.2,West,6.9,-,N/A,,Mostly Cloudy,280,2013-10-17 22:00:00
5:00 PM,78.8,73.4,83,29.81,6.2,West,5.8,-,N/A,,Mostly Cloudy,260,2013-10-17 23:00:00
6:00 PM,79,73,78,29.84,9,West,3.5,,,,Overcast,280,2013-10-18 00:00:00
6:00 PM,78.8,73.4,83,29.83,6.2,West,3.5,-,N/A,,Overcast,280,2013-10-18 00:00:00
7:00 PM,78.8,73.4,83,29.85,6.2,NNE,2.3,-,N/A,,Mostly Cloudy,20,2013-10-18 01:00:00
8:00 PM,77.0,73.4,89,29.88,6.2,ENE,3.5,-,N/A,,Overcast,60,2013-10-18 02:00:00